Home > Weather > Cape Dorset > Past weeks

Flag for Canada Past Weather in Cape Dorset, Nunavut, Canada — Yesterday and Last 2 Weeks

Now
27 °F

Overcast.


Feels Like: 11 °F
Forecast: 25 / 31 °F
Wind: 26 mph from West

Location: Cape Dorset

Current Time: May 27, 2016 at 12:14:52 PM

Latest Report: May 27, 2016 at 11:00 AM


Visibility: 15 mi

Pressure: 30.11 "Hg

Humidity: 86%

Dew Point: 23 °F

Location of Cape DorsetLocation

Past Weather in Cape Dorset — Graph

°F

Cape Dorset Temperature Yesterday

Maximum temperature yesterday: 32 °F (at 2:00 PM)
Minimum temperature yesterday: 27 °F (at 6:00 AM)
Average temperature yesterday: 30 °F

High & Low Weather Summary for the Past Weeks

 TemperatureHumidityPressure
High34 °F (May 14, 5:02 PM)100% (May 14, 9:00 AM)30.25 "Hg (May 14, 9:00 AM)
Low18 °F (May 13, 11:00 PM)68% (May 13, 2:03 AM)29.36 "Hg (May 23, 12:48 AM)
Average28 °F90%29.80 "Hg
* Reported May 12 10:00 AM — May 27 10:00 AM, Cape Dorset, Weather by CustomWeather, © 2016

Note: Actual official high and low records may vary slightly from our data, if they occured in-between our weather recording intervals... More about our weather records

Advertising

Cape Dorset Weather History for the Previous 24 Hours

Scroll right to see more
 ConditionsComfort  
Time TempWeatherWind HumidityBarometerVisibility
10:00 AM
Fri, May 27
27 °FPartly sunny.26 mph93%30.12 "Hg15 mi
9:00 AM27 °FPartly sunny.24 mph93%30.14 "Hg15 mi
8:00 AM27 °FOvercast.23 mph86%30.16 "Hg15 mi
7:00 AM27 °FOvercast.24 mph86%30.17 "Hg15 mi
6:00 AM25 °FOvercast.23 mph93%30.18 "Hg9 mi
5:00 AM25 °FOvercast.23 mph93%30.19 "Hg9 mi
4:00 AM25 °FOvercast.21 mph93%30.20 "Hg9 mi
3:00 AM27 °FOvercast.20 mph86%30.21 "Hg9 mi
2:00 AM27 °FOvercast.17 mph86%30.22 "Hg9 mi
1:00 AM27 °FOvercast.16 mph86%30.24 "Hg9 mi
12:00 AM28 °FOvercast.17 mph86%30.24 "Hg9 mi
11:00 PM
Thu, May 26
28 °FOvercast.14 mph86%30.24 "Hg9 mi
10:00 PM28 °FSunny.14 mph86%30.25 "Hg9 mi
9:00 PM30 °FSunny.9 mph80%30.24 "Hg9 mi
8:00 PM30 °FSunny.15 mph86%30.24 "Hg9 mi
7:00 PM32 °FSunny.13 mph80%30.25 "Hg9 mi
6:00 PM32 °FScattered clouds.14 mph80%30.25 "Hg9 mi
5:57 PM32 °FScattered clouds.14 mph80%30.24 "Hg9 mi
5:00 PM32 °FChilly.14 mph80%30.24 "HgN/A
4:00 PM32 °FChilly.15 mph80%30.23 "Hg9 mi
3:00 PM32 °FPartly sunny.17 mph80%30.22 "Hg9 mi
2:00 PM32 °FPartly sunny.18 mph80%30.22 "Hg9 mi
1:00 PM30 °FPartly sunny.18 mph80%30.21 "Hg9 mi
12:00 PM30 °FPartly sunny.21 mph80%30.21 "Hg15 mi
Weather by CustomWeather, © 2016

See weather overviewHow to use our weather pages